Wetbulb
75.37 76.47 78.32 77.76 77.96 78.20 78.04 78.21 78.27 77.94 77.53 76.79 76.33 76.41 76.73 76.52 76.50 76.54 76.45 76.15 75.78 75.18 75.65 75.82 75.71 75.87 76.26 76.03 75.71 75.02 74.57 75.23 76.06 76.23 75.83 75.56 75.58 75.37 74.77 74.17 75.14 73.47 73.36
76.90 76.45 78.05 78.11 77.88 77.99 78.20 78.07 78.46 78.50 77.34 76.83 76.67 76.65 76.79 76.81 76.57 76.70 76.36 76.33 76.06 75.98 76.08 76.43 75.90 76.05 75.79 75.54 75.38 75.74 74.96 75.43 75.64 75.96 74.82 75.38 74.77 74.54 73.43 73.51 75.29 72.86 73.80
76.32 77.23 76.33 78.19 77.59 77.76 78.01 78.28 77.65 77.94 77.04 76.57 76.92 76.73 76.65 76.57 76.39 76.20 76.44 76.37 76.37 75.96 75.95 76.26 76.27 76.09 75.18 75.54 75.38 76.03 75.51 75.71 75.54 74.20 75.67 75.62 75.38 74.49 72.77 73.65 75.71 73.96 74.80
76.52 77.39 76.18 77.86 78.11 77.57 77.70 77.83 77.79 77.34 76.86 76.98 76.88 76.67 76.58 76.66 76.84 76.95 76.98 76.34 76.40 75.82 76.03 76.09 76.15 75.96 75.01 74.99 75.84 75.46 75.64 75.09 75.18 75.34 74.95 72.25 73.60 72.94 74.87 73.47 74.41 75.17 75.44
76.32 76.79 77.76 78.04 77.53 77.46 77.54 77.67 77.63 77.63 77.12 77.07 76.69 76.64 76.59 76.35 76.70 76.35 76.35 76.35 76.26 76.28 76.25 76.17 75.82 75.46 75.27 75.46 75.73 75.62 75.35 75.20 75.70 75.74 73.15 74.52 74.02 73.79 74.29 74.62 74.11 74.64 74.15
75.41 77.48 77.74 78.24 77.23 77.25 77.23 77.14 77.23 77.49 77.30 77.04 76.80 76.56 76.75 76.73 76.60 76.43 76.71 76.20 76.34 75.85 76.28 76.07 75.35 75.43 75.81 76.00 75.81 75.47 75.48 75.67 75.37 74.44 74.00 73.98 75.07 74.35 72.74 73.58 75.18 74.75 73.90
77.03 78.55 77.89 78.53 78.12 77.65 77.26 77.30 77.49 77.38 77.12 77.13 76.97 76.78 76.65 76.31 76.36 76.31 75.89 76.45 76.37 76.25 76.25 75.90 75.17 75.86 75.98 76.13 75.52 75.85 75.42 74.82 75.51 73.00 73.40 73.15 75.33 74.72 74.48 73.77 74.73 74.37 73.74
75.48 77.58 78.12 78.17 77.90 77.47 77.34 77.26 77.31 77.59 77.24 77.31 76.18 75.91 76.47 76.56 76.07 76.15 75.99 75.85 76.04 76.63 76.24 75.93 75.49 76.22 76.27 76.02 74.90 75.06 74.96 75.04 74.71 73.05 73.14 74.75 74.88 74.77 73.91 72.56 74.39 73.84 72.81
76.43 77.32 77.38 77.41 77.80 77.39 77.24 77.47 77.27 77.04 76.96 76.98 76.61 76.24 75.93 75.95 75.85 75.64 75.38 75.73 75.68 76.02 76.49 75.63 75.82 76.04 75.67 75.56 75.34 75.07 75.02 75.83 75.57 74.59 72.87 74.84 75.30 74.60 75.31 73.36 72.43 73.34 74.46
76.32 76.72 77.33 78.22 77.18 77.80 76.90 77.17 77.42 77.02 76.89 76.97 76.47 76.34 76.67 76.28 76.67 76.64 76.00 75.90 75.87 75.73 76.37 75.98 76.35 76.07 76.11 75.99 75.34 75.14 75.34 75.98 75.26 74.16 73.41 74.32 75.49 74.56 75.25 74.28 73.55 74.43 72.93
75.99 76.99 76.15 76.34 75.04 75.01 77.62 77.43 76.98 76.58 76.15 76.35 76.23 75.90 75.90 76.59 76.62 76.85 76.87 76.16 76.37 75.79 75.85 76.26 76.10 76.41 75.88 75.80 75.51 75.15 75.01 74.09 74.03 74.24 73.96 75.63 76.05 74.74 74.59 74.84 74.45 74.30 73.50
75.20 76.20 75.07 76.44 74.11 73.79 74.95 77.61 77.62 76.68 76.24 76.14 76.46 76.81 76.15 76.76 77.58 76.38 76.20 76.31 76.28 76.26 75.96 76.04 76.25 76.24 76.33 74.64 75.07 75.29 74.44 74.05 74.86 73.55 76.07 76.61 76.45 75.19 75.49 75.89 74.96 74.84 74.64
76.04 76.48 76.81 76.71 73.90 74.19 75.21 77.21 77.75 78.36 76.96 79.37 77.11 77.32 78.56 78.33 76.53 76.04 77.74 75.61 75.10 76.40 76.04 75.74 75.76 75.37 74.79 74.63 74.25 74.64 73.38 74.59 74.12 74.88 75.31 76.86 76.48 75.56 75.57 76.25 76.14 75.38 75.00
75.99 76.38 75.79 77.31 75.46 74.33 74.19 73.72 76.96 77.52 77.35 78.28 77.52 78.27 79.19 78.22 77.42 77.60 74.12 77.54 77.87 76.16 76.59 76.75 75.65 75.10 75.71 75.98 76.21 74.29 74.23 74.72 74.84 74.51 76.10 76.74 76.62 75.90 75.89 76.00 76.92 76.43 75.68
75.62 76.53 76.47 76.55 75.88 75.37 75.27 75.30 75.00 75.13 75.51 76.20 76.69 78.16 77.61 76.24 76.34 75.96 76.34 76.00 75.34 77.68 76.53 75.81 76.85 76.40 76.96 75.94 75.52 76.03 74.52 74.49 74.29 75.08 74.79 77.43 76.93 76.82 76.37 76.31 76.33 76.38 75.97
76.36 76.29 76.53 75.85 76.48 75.76 74.65 75.73 75.20 75.69 78.05 75.19 76.91 76.64 77.60 77.13 76.84 75.59 75.77 74.57 75.94 76.15 75.97 75.85 76.27 77.39 75.57 75.70 75.16 76.07 75.32 75.03 74.68 74.64 74.48 76.39 76.78 76.31 76.85 76.81 77.22 76.55 76.34
76.77 76.74 76.65 76.40 75.32 74.54 75.22 74.65 74.81 74.31 76.00 75.77 76.54 77.61 77.19 77.16 78.30 78.18 75.08 74.90 75.64 76.93 77.24 76.81 77.58 76.62 75.40 75.48 74.81 75.49 74.85 75.59 75.19 75.54 75.04 75.11 75.58 76.50 76.64 77.22 77.10 76.97 77.06
76.87 76.58 76.48 74.94 75.42 75.18 74.88 75.03 75.09 75.07 74.89 74.54 74.58 74.66 76.15 76.48 76.98 76.86 75.06 74.49 75.38 76.34 75.58 75.25 75.73 76.91 74.88 73.81 74.15 74.08 74.15 75.95 75.21 75.70 75.59 76.37 76.03 74.63 75.79 76.79 76.81 76.56 76.77
76.81 76.13 75.39 74.78 75.05 75.48 75.53 74.96 75.99 76.32 75.24 74.45 74.90 76.22 76.26 76.02 74.89 75.76 74.07 73.81 74.97 75.22 74.74 75.85 75.29 75.46 74.68 73.90 74.20 73.82 74.69 74.21 75.47 74.33 75.33 76.29 76.82 76.36 75.67 75.83 76.31 75.92 76.60
75.46 75.98 75.73 75.00 75.23 74.27 74.51 75.54 75.35 75.56 75.73 75.78 75.64 76.22 76.04 75.59 74.54 72.82 73.11 73.55 73.20 73.05 73.78 75.55 75.16 75.13 73.05 72.49 72.01 72.04 75.01 73.88 73.76 73.58 74.71 74.71 75.59 76.46 73.51 73.52 74.97 75.83 76.15
74.31 74.76 75.71 74.61 75.32 74.96 74.46 73.38 72.82 71.69 73.94 73.82 74.41 75.61 75.41 76.00 74.21 73.85 73.56 76.37 74.62 72.89 74.36 75.40 75.64 74.34 72.25 73.22 73.45 71.68 72.45 73.48 73.13 74.02 75.17 75.66 76.01 76.24 75.75 75.72 79.95 75.48 76.58
73.89 74.32 74.86 74.69 75.07 76.34 75.47 74.84 73.35 73.52 74.25 74.39 75.43 75.30 75.37 75.08 75.32 75.12 74.22 72.40 73.57 72.74 73.57 72.86 72.18 72.02 72.30 74.16 72.06 72.88 66.77 69.81 71.76 73.90 76.54 75.32 75.26 76.48 74.55 76.23 77.10 76.88 77.26
73.93 73.78 74.43 74.81 76.12 76.63 76.62 74.53 74.27 74.23 73.68 72.70 73.67 73.91 73.93 74.71 74.75 74.84 72.96 72.63 72.83 72.02 70.82 71.98 73.50 74.05 73.28 75.80 74.96 71.20 66.27 66.09 67.12 74.11 73.86 73.29 72.87 73.03 75.24 75.05 75.23 75.93 76.87
74.04 74.48 74.66 74.72 76.24 76.62 76.59 74.76 74.25 73.00 72.24 74.22 73.32 73.66 73.67 73.74 73.62 74.17 74.61 73.38 71.63 71.50 72.93 70.84 74.82 75.51 75.15 72.83 74.00 72.42 71.82 70.50 65.01 64.47 70.85 72.43 73.35 72.48 73.97 74.08 73.58 74.65 75.60
74.60 74.35 73.97 74.58 75.24 76.81 76.36 75.73 73.48 73.59 73.93 73.03 72.73 74.09 74.11 73.99 73.25 72.15 70.84 72.61 71.58 73.68 75.25 74.79 75.10 75.19 75.61 73.77 73.60 70.64 70.33 69.34 68.73 67.52 65.12 69.48 70.13 69.88 69.99 71.46 74.19 74.86 74.96
74.87 74.67 74.53 74.60 75.10 76.65 76.26 75.59 75.07 73.83 73.08 72.36 72.98 72.37 73.68 73.43 73.76 72.77 71.03 71.72 71.55 72.16 73.45 72.85 74.30 74.03 74.15 73.75 71.51 69.48 69.28 71.18 70.36 69.64 69.31 69.58 68.10 65.74 66.69 68.19 70.01 73.32 74.15
MSLP
1007.56 1009.85 1011.06 1011.45 1011.73 1011.96 1012.27 1012.49 1012.80 1013.06 1013.32 1013.61 1013.84 1014.12 1014.35 1014.46 1014.49 1014.69 1014.85 1015.07 1015.25 1015.43 1015.43 1015.45 1015.62 1015.81 1015.85 1016.01 1016.11 1016.13 1016.21 1016.28 1016.32 1016.40 1016.54 1016.67 1016.91 1016.93 1017.01 1017.14 1017.03 1017.04 1017.87
1007.67 1009.94 1011.33 1011.75 1012.00 1012.26 1012.53 1012.69 1013.02 1013.24 1013.53 1013.82 1013.99 1014.23 1014.50 1014.50 1014.64 1014.84 1014.92 1015.15 1015.43 1015.56 1015.56 1015.59 1015.73 1015.97 1016.05 1016.23 1016.31 1016.35 1016.51 1016.48 1016.52 1016.55 1016.68 1016.84 1017.16 1017.26 1017.28 1017.28 1016.91 1017.66 1018.00
1008.04 1009.99 1011.13 1011.84 1012.20 1012.43 1012.74 1013.01 1013.13 1013.52 1013.70 1013.89 1014.09 1014.31 1014.52 1014.64 1014.72 1014.86 1015.05 1015.18 1015.37 1015.56 1015.70 1015.74 1015.97 1016.15 1016.26 1016.35 1016.45 1016.53 1016.70 1016.70 1016.60 1016.50 1016.43 1015.76 1016.88 1017.53 1017.55 1017.64 1017.77 1018.09 1018.14
1008.12 1009.65 1010.74 1011.95 1012.22 1012.50 1012.92 1013.17 1013.43 1013.69 1013.80 1014.07 1014.25 1014.44 1014.60 1014.78 1014.92 1014.98 1015.13 1015.32 1015.41 1015.59 1015.79 1015.93 1016.24 1016.27 1016.45 1016.56 1016.63 1016.77 1016.92 1016.89 1016.69 1016.56 1015.96 1015.49 1016.44 1017.80 1017.81 1017.97 1018.16 1018.32 1018.36
1008.11 1009.09 1010.69 1012.12 1012.44 1012.62 1012.92 1013.20 1013.45 1013.72 1013.97 1014.15 1014.36 1014.53 1014.67 1014.95 1015.08 1015.10 1015.19 1015.31 1015.43 1015.70 1015.85 1016.12 1016.27 1016.41 1016.57 1016.72 1016.83 1016.94 1017.00 1016.87 1016.69 1016.46 1015.53 1015.83 1016.08 1017.81 1018.09 1018.17 1018.36 1018.44 1018.61
1007.74 1008.79 1011.18 1012.02 1012.51 1012.84 1013.01 1013.32 1013.58 1013.80 1014.03 1014.26 1014.42 1014.64 1014.95 1014.97 1015.15 1015.22 1015.34 1015.44 1015.59 1015.78 1015.93 1016.14 1016.31 1016.52 1016.77 1016.86 1017.01 1017.15 1017.15 1016.84 1016.65 1015.59 1016.06 1016.42 1016.75 1017.92 1018.26 1018.41 1018.39 1018.59 1018.87
1008.58 1009.49 1011.03 1012.17 1012.72 1012.99 1013.17 1013.43 1013.67 1013.81 1014.08 1014.36 1014.58 1014.74 1014.96 1015.09 1015.30 1015.38 1015.54 1015.60 1015.70 1015.84 1016.01 1016.20 1016.41 1016.72 1016.84 1016.98 1017.19 1017.28 1017.19 1017.01 1016.59 1015.63 1016.12 1016.45 1017.43 1018.07 1018.40 1018.50 1018.70 1018.89 1019.08
1008.14 1009.34 1010.97 1012.27 1012.81 1013.17 1013.45 1013.52 1013.74 1013.82 1014.10 1014.30 1014.66 1014.85 1015.02 1015.19 1015.41 1015.54 1015.68 1015.72 1015.76 1015.90 1016.14 1016.29 1016.52 1016.72 1016.83 1017.01 1017.23 1017.42 1017.34 1016.96 1015.84 1015.63 1016.15 1016.48 1017.66 1018.15 1018.51 1018.67 1018.80 1018.98 1019.18
1008.65 1009.73 1010.77 1011.97 1012.88 1013.31 1013.62 1013.78 1013.84 1013.94 1014.16 1014.30 1014.53 1014.92 1015.16 1015.30 1015.41 1015.66 1015.81 1015.86 1015.89 1016.05 1016.19 1016.37 1016.60 1016.72 1016.86 1017.06 1017.31 1017.51 1017.54 1017.05 1016.58 1016.30 1015.91 1016.12 1017.52 1018.05 1018.41 1018.71 1018.89 1019.06 1019.20
1009.04 1009.98 1010.77 1011.64 1012.85 1013.10 1013.28 1013.86 1013.97 1014.00 1014.18 1014.35 1014.47 1014.67 1015.04 1015.31 1015.39 1015.55 1015.76 1016.00 1016.06 1016.12 1016.21 1016.42 1016.57 1016.76 1016.92 1017.10 1017.26 1017.42 1017.42 1017.00 1016.34 1015.91 1015.70 1016.59 1017.48 1017.95 1018.34 1018.66 1018.89 1019.06 1019.24
1009.41 1009.84 1010.62 1011.80 1013.20 1013.40 1013.55 1013.58 1014.02 1014.16 1014.20 1014.31 1014.45 1014.64 1014.85 1014.48 1014.63 1015.09 1015.14 1015.75 1016.03 1016.16 1016.32 1016.45 1016.54 1016.76 1016.97 1017.08 1017.15 1017.29 1017.38 1016.57 1016.17 1015.45 1015.24 1016.52 1017.16 1017.85 1018.29 1018.55 1018.83 1019.06 1019.25
1009.30 1009.59 1010.92 1012.08 1013.28 1013.96 1013.83 1013.62 1013.48 1013.45 1013.65 1013.80 1013.81 1014.17 1014.36 1014.14 1014.49 1014.86 1015.22 1015.63 1015.96 1016.11 1016.26 1016.43 1016.61 1016.74 1016.87 1016.13 1016.56 1017.08 1016.68 1016.09 1015.88 1015.80 1015.62 1016.49 1017.11 1017.76 1018.17 1018.40 1018.71 1018.97 1019.17
1009.08 1009.77 1010.90 1012.09 1013.12 1013.35 1013.38 1013.44 1013.73 1013.58 1013.51 1013.53 1013.73 1014.04 1014.04 1014.32 1014.27 1014.38 1014.97 1015.14 1015.43 1015.90 1015.49 1016.01 1016.28 1016.20 1015.90 1015.41 1015.42 1015.67 1015.70 1015.58 1015.68 1015.53 1016.57 1016.41 1017.02 1017.65 1017.98 1018.22 1018.51 1018.80 1019.03
1009.06 1009.61 1010.81 1011.68 1012.35 1012.90 1013.21 1013.21 1013.29 1013.43 1013.47 1013.74 1013.60 1013.85 1014.27 1014.43 1014.43 1014.07 1014.68 1014.64 1014.79 1014.81 1015.33 1015.17 1015.18 1015.37 1015.48 1015.45 1015.29 1015.44 1014.86 1014.99 1015.32 1015.49 1016.14 1016.38 1016.77 1017.40 1017.74 1017.94 1018.17 1018.46 1018.72
1009.19 1009.80 1010.93 1011.68 1012.18 1012.52 1012.96 1013.13 1012.89 1013.05 1012.84 1012.91 1012.92 1013.73 1013.70 1013.60 1014.10 1013.67 1014.06 1014.27 1014.48 1014.70 1014.39 1015.11 1015.28 1014.99 1015.55 1015.48 1015.46 1015.53 1015.20 1015.02 1014.94 1014.95 1015.70 1016.05 1016.43 1016.93 1017.35 1017.57 1017.81 1018.12 1018.32
1009.10 1009.62 1010.94 1011.72 1011.94 1012.23 1012.60 1012.72 1012.81 1012.83 1012.99 1012.47 1012.45 1012.55 1013.38 1013.27 1013.63 1013.45 1013.57 1013.62 1013.84 1014.25 1014.53 1014.57 1014.71 1015.35 1015.21 1014.99 1015.32 1015.42 1015.70 1015.39 1015.01 1015.12 1014.87 1015.67 1015.84 1016.19 1016.66 1017.10 1017.37 1017.55 1017.81
1008.85 1009.50 1010.16 1011.28 1011.92 1012.30 1012.41 1012.66 1012.65 1013.14 1013.46 1013.53 1013.39 1013.30 1012.94 1013.36 1013.51 1013.44 1013.20 1013.36 1013.38 1013.99 1014.57 1014.53 1014.48 1014.78 1015.38 1015.01 1015.04 1014.96 1015.04 1014.91 1014.81 1015.11 1015.02 1014.97 1015.58 1015.85 1015.97 1016.28 1016.71 1017.03 1017.28
1008.71 1009.58 1010.29 1011.00 1011.75 1012.10 1012.30 1012.39 1012.22 1012.29 1012.53 1012.59 1012.99 1013.39 1013.72 1013.76 1013.85 1013.62 1013.33 1013.18 1013.40 1013.96 1014.25 1014.50 1014.87 1015.28 1014.94 1014.88 1014.87 1014.84 1014.80 1014.73 1014.82 1014.78 1014.98 1015.05 1015.21 1015.47 1015.85 1015.83 1016.08 1016.36 1016.51
1008.96 1009.78 1010.52 1011.22 1011.74 1011.97 1012.09 1012.26 1012.41 1012.32 1012.48 1012.29 1012.18 1012.95 1013.18 1013.83 1014.47 1014.24 1014.02 1013.98 1014.32 1013.57 1014.22 1014.55 1014.85 1015.00 1014.64 1014.65 1014.80 1014.86 1014.61 1014.54 1014.40 1014.04 1014.16 1014.29 1014.70 1014.90 1015.51 1015.44 1015.26 1015.52 1015.92
1008.84 1009.58 1010.31 1010.88 1011.52 1012.17 1012.13 1012.07 1011.92 1012.36 1012.50 1012.81 1012.97 1012.80 1012.83 1013.44 1014.00 1014.52 1014.40 1014.43 1014.83 1014.39 1013.83 1013.96 1014.46 1014.31 1014.67 1014.42 1014.49 1014.37 1014.46 1014.50 1014.51 1014.29 1014.02 1013.91 1014.24 1014.48 1014.78 1015.39 1015.07 1014.29 1014.81
1008.93 1009.54 1010.17 1010.63 1011.27 1011.63 1011.90 1011.71 1011.51 1011.55 1011.59 1012.24 1012.41 1012.80 1012.82 1012.83 1013.46 1013.88 1014.26 1014.06 1014.37 1014.63 1014.50 1014.31 1014.71 1014.84 1014.65 1014.22 1014.43 1014.22 1014.00 1014.57 1014.44 1014.01 1014.15 1013.95 1014.22 1014.57 1014.75 1014.48 1014.45 1014.43 1014.08
1008.68 1009.39 1010.21 1010.48 1011.13 1011.23 1010.92 1011.25 1011.53 1011.77 1011.85 1012.21 1012.05 1012.46 1012.67 1012.62 1012.86 1013.16 1013.87 1014.39 1014.45 1014.77 1014.81 1014.93 1015.08 1014.78 1014.43 1014.15 1014.59 1015.04 1014.57 1014.73 1014.41 1014.19 1014.56 1014.64 1014.50 1014.70 1014.76 1014.25 1014.27 1014.40 1014.38
1008.25 1009.00 1009.68 1010.35 1010.61 1010.81 1010.50 1011.32 1011.62 1011.79 1011.87 1011.82 1012.08 1012.14 1012.31 1012.53 1012.67 1013.10 1013.76 1014.24 1014.40 1014.73 1014.83 1014.66 1014.70 1014.71 1014.68 1014.62 1014.90 1015.04 1015.29 1015.08 1014.94 1014.55 1014.58 1014.86 1015.06 1014.95 1014.65 1014.50 1014.71 1014.77 1014.66
1007.87 1008.66 1009.33 1010.01 1010.28 1010.41 1010.73 1010.61 1010.80 1010.73 1011.26 1011.33 1011.51 1011.86 1012.14 1012.42 1012.64 1013.01 1013.17 1013.74 1014.22 1014.44 1014.30 1014.48 1014.32 1014.37 1014.59 1014.55 1014.94 1015.04 1015.41 1015.50 1015.30 1014.90 1014.74 1014.86 1015.04 1015.26 1015.36 1015.11 1014.83 1014.90 1014.82
1007.49 1008.16 1008.88 1009.79 1010.25 1010.14 1010.59 1010.57 1010.89 1010.82 1011.19 1011.43 1011.34 1011.92 1012.32 1012.55 1012.80 1013.21 1013.54 1013.63 1013.95 1014.10 1014.12 1014.00 1014.01 1014.07 1014.23 1014.46 1014.63 1014.90 1015.28 1015.24 1015.50 1015.59 1015.06 1014.99 1015.42 1015.88 1016.02 1015.74 1015.46 1015.45 1015.20
1007.11 1007.77 1008.40 1009.35 1010.02 1010.16 1010.48 1010.88 1010.92 1011.02 1011.26 1011.58 1011.93 1011.92 1012.02 1012.07 1012.52 1013.02 1013.29 1013.45 1013.60 1013.93 1013.93 1013.79 1013.82 1013.97 1013.99 1014.11 1014.40 1014.59 1014.80 1014.61 1014.31 1014.64 1014.86 1015.01 1015.60 1016.58 1016.67 1016.62 1016.17 1015.84 1015.70
Wind_Speed
15 17 14 13 12 12 12 11 13 14 14 13 13 12 11 11 11 9 10 8 7 6 5 8 9 8 10 9 9 10 10 11 12 11 11 12 12 11 9 6 9 14 10
18 17 13 12 13 12 11 11 13 14 14 14 13 12 11 10 10 9 10 9 8 6 7 9 9 8 7 8 9 10 10 10 9 12 12 12 11 9 8 9 17 12 10
17 17 16 12 12 13 12 12 12 13 14 14 13 12 11 9 9 10 9 9 9 7 7 8 8 7 8 8 8 10 9 9 7 9 12 13 12 9 8 9 12 11 10
16 16 16 13 12 13 12 12 13 13 13 12 12 11 9 9 8 9 10 9 8 8 8 8 9 8 8 8 8 9 9 6 5 6 10 9 13 9 8 10 9 10 10
13 14 20 14 13 14 13 12 13 13 12 12 11 10 9 8 9 8 9 9 9 10 10 9 8 9 9 8 8 9 7 5 7 9 2 10 7 10 8 8 10 8 4
13 21 20 16 14 13 14 13 13 13 12 11 10 9 9 9 9 8 8 8 9 9 8 8 9 9 9 8 8 7 6 8 9 4 8 7 11 12 7 3 7 10 8
19 17 17 15 12 13 13 13 12 12 12 10 10 9 9 7 7 6 6 8 8 9 8 8 8 7 9 9 8 8 6 6 11 7 9 4 12 10 6 4 7 7 6
11 15 16 14 13 13 13 13 13 13 12 11 8 7 8 8 6 6 6 7 8 9 9 7 9 9 9 8 8 6 5 10 9 8 0 9 14 9 6 4 3 6 5
11 11 13 13 12 12 12 12 12 12 12 11 9 9 8 9 6 5 5 6 7 8 8 8 9 10 9 9 7 6 6 12 12 4 8 8 15 10 7 7 5 4 2
7 13 11 8 7 8 11 12 12 12 11 10 9 10 10 9 7 7 7 8 7 8 8 9 9 10 9 9 8 6 7 13 12 8 5 10 14 11 8 7 5 5 4
7 10 9 11 7 3 8 10 11 11 11 11 11 11 10 10 10 12 7 10 8 7 8 9 9 9 9 9 9 8 8 6 7 7 4 19 16 11 8 7 7 6 5
10 7 10 11 9 6 7 8 10 10 10 10 11 11 9 6 2 5 6 9 7 8 8 10 9 9 10 10 9 10 8 6 9 7 9 17 14 12 9 8 9 8 8
10 6 11 11 9 7 5 5 4 4 5 4 8 8 5 4 8 8 5 7 7 10 9 10 10 9 11 9 5 9 10 4 5 3 8 16 14 12 11 10 10 10 9
8 9 9 10 8 6 3 6 7 5 6 5 7 9 6 5 5 2 6 3 5 6 4 5 4 7 6 9 3 7 7 5 3 6 8 15 15 13 12 12 11 12 11
8 7 10 9 8 6 7 4 5 6 8 9 10 9 7 7 6 5 4 6 4 4 8 7 1 4 4 5 7 6 8 8 7 3 5 16 15 14 14 14 14 14 14
9 9 12 9 8 5 5 7 6 5 5 8 3 11 10 10 8 7 7 6 7 6 2 5 7 4 7 8 10 6 6 6 9 8 5 10 17 16 15 14 14 15 15
9 7 12 11 8 8 5 7 7 3 1 3 4 8 7 8 8 9 7 7 4 6 6 6 3 3 6 6 5 2 6 9 5 5 8 7 8 15 17 16 15 15 15
7 7 7 7 8 9 8 4 5 7 7 9 7 7 8 9 8 7 5 5 6 5 5 5 3 5 7 5 3 4 3 4 6 8 5 3 4 4 11 15 16 16 17
8 8 9 9 8 9 9 8 5 3 6 8 5 5 10 8 7 8 5 5 5 6 7 7 6 8 7 5 3 5 5 6 8 8 10 10 7 2 2 10 18 16 16
7 9 10 9 10 7 5 4 5 6 6 6 7 8 10 10 11 8 6 7 5 8 7 7 6 7 6 4 5 3 1 3 3 6 7 7 4 3 3 4 10 11 17
8 9 10 10 10 8 7 6 5 4 3 3 6 10 12 11 13 11 6 6 7 7 8 4 4 7 7 5 4 7 6 8 11 10 5 6 2 6 7 9 3 5 7
10 9 9 9 10 8 5 3 2 0 1 2 2 3 7 10 8 8 7 2 4 4 6 6 5 8 10 6 4 3 7 3 6 6 4 6 4 4 7 12 3 8 8
10 10 9 10 11 9 7 5 5 5 4 4 4 4 4 4 4 8 9 6 5 4 4 4 6 11 8 5 7 5 2 3 1 2 5 2 2 5 4 6 4 5 6
10 10 9 10 10 9 8 6 2 4 3 5 3 2 4 4 4 5 6 8 5 5 8 7 8 9 9 7 4 6 6 1 1 3 2 2 1 2 4 5 4 4 5
11 10 10 10 11 9 9 6 6 3 2 2 4 5 2 4 4 6 4 5 4 5 7 9 9 8 7 6 6 3 2 4 5 3 5 3 2 3 6 5 4 4 5
11 10 10 11 10 9 8 8 5 3 2 1 1 3 3 5 7 8 5 4 2 4 5 4 4 6 5 5 2 3 4 5 7 7 6 5 2 2 4 5 6 4 5
Wind_Direction
131 129 142 142 135 128 134 147 152 151 152 151 146 145 141 138 131 138 116 122 121 113 114 108 130 121 109 111 105 101 99 102 106 107 103 107 94 108 105 100 158 104 111
123 138 141 142 139 131 131 144 157 150 154 154 150 151 146 145 142 137 131 132 134 128 113 107 119 113 124 121 113 110 109 107 110 121 123 113 105 107 90 53 70 102 113
122 129 154 145 145 137 132 135 149 153 153 150 149 149 150 153 154 152 148 145 134 121 125 120 114 129 109 115 117 117 111 106 143 160 178 135 107 103 95 82 91 116 107
132 139 146 147 148 144 141 139 143 148 147 148 149 154 156 166 163 155 141 143 138 130 132 127 130 123 121 123 118 113 116 129 199 215 223 110 119 114 106 106 105 106 119
135 140 124 151 152 152 150 149 147 148 153 155 159 163 168 168 157 157 146 138 135 134 135 140 129 125 134 129 122 123 114 166 219 237 107 60 113 115 118 122 137 127 165
178 123 135 152 160 159 156 157 157 151 157 163 167 175 169 169 162 162 152 143 139 140 130 139 136 141 141 145 142 127 155 222 247 193 78 102 63 114 123 123 81 97 99
115 128 138 152 166 167 166 165 162 160 161 170 181 171 156 158 162 146 155 147 149 141 143 148 148 144 143 146 142 146 187 249 266 133 127 218 104 116 118 103 109 105 113
150 134 134 155 172 176 179 177 170 170 164 164 179 168 158 152 143 148 154 158 154 142 156 158 158 152 143 146 149 163 207 257 248 100 56 108 120 130 145 144 120 147 148
123 130 148 163 180 184 190 191 183 182 175 178 183 167 178 161 166 165 156 144 155 157 161 163 166 160 159 158 163 182 224 265 277 251 186 151 136 146 168 162 164 169 165
161 141 152 141 164 192 185 201 199 189 190 191 190 186 187 195 186 178 170 180 167 161 168 172 177 173 169 170 177 194 229 262 266 283 216 114 137 148 166 169 184 179 184
190 140 133 140 125 300 227 192 200 204 198 193 196 199 193 217 174 167 178 149 169 183 181 187 181 182 184 186 190 205 231 245 320 284 46 135 139 154 185 187 196 202 212
185 177 107 130 141 179 263 205 203 197 199 200 195 177 218 222 185 26 138 161 168 189 191 193 193 190 199 195 191 202 229 197 229 251 119 136 142 162 191 202 207 215 217
175 169 118 115 134 180 192 192 206 206 221 240 204 185 233 211 192 198 142 180 187 195 195 190 186 208 206 248 171 199 205 228 237 291 115 135 148 174 199 213 209 218 233
171 165 142 138 159 181 221 243 171 182 200 208 196 196 188 211 244 204 166 235 148 191 153 232 188 247 190 250 243 244 223 219 220 192 149 153 156 185 208 218 216 217 222
165 149 147 149 159 180 202 224 228 281 183 219 178 186 199 202 211 226 181 179 229 213 170 206 143 246 279 220 260 282 249 266 262 230 157 159 167 183 211 223 222 221 220
167 158 142 170 165 187 225 192 221 243 296 233 267 173 207 221 181 208 215 207 191 181 184 255 180 183 215 246 199 196 249 274 231 258 267 178 175 180 196 217 222 221 222
163 177 158 167 167 160 173 185 190 195 183 274 287 324 193 226 178 232 210 207 245 165 248 238 203 166 236 249 249 215 251 241 270 237 243 281 182 190 197 199 211 218 220
152 166 159 152 159 158 152 177 183 186 207 208 205 220 235 230 235 213 254 220 210 188 212 243 230 228 247 204 223 231 216 237 224 244 241 240 284 189 211 203 208 214 215
157 161 167 160 172 166 155 166 195 178 228 251 249 202 195 217 239 241 234 240 291 256 197 207 211 231 222 257 219 255 248 238 252 245 241 239 206 220 184 230 215 206 218
161 170 173 176 161 180 170 177 199 175 207 220 250 259 230 201 208 205 219 214 235 263 254 189 220 233 279 213 222 247 200 276 291 321 276 263 45 240 227 222 249 227 210
163 164 172 177 171 187 173 183 170 231 176 244 227 238 237 229 204 207 230 205 202 230 270 263 237 256 278 280 337 274 280 288 267 265 239 243 289 258 268 263 259 271 248
166 168 179 175 176 198 175 136 151 244 112 277 304 230 230 222 220 209 208 214 213 225 226 227 246 252 235 270 236 283 270 284 275 250 251 256 293 269 254 261 302 271 271
169 173 177 186 186 197 134 153 162 153 170 191 192 169 154 170 199 199 194 222 200 197 232 251 244 240 248 240 226 232 225 251 247 273 227 214 317 298 286 278 304 279 280
186 171 171 191 200 188 184 179 196 316 41 36 116 124 158 205 201 188 191 194 209 224 240 236 241 238 238 240 211 216 232 244 332 327 235 157 107 5 2 337 314 309 292
194 179 175 188 206 193 183 226 184 236 76 116 202 133 188 166 202 193 197 238 253 256 254 249 249 237 228 234 218 163 212 244 231 225 278 217 152 39 5 340 341 340 356
188 183 182 176 201 204 201 205 212 150 123 165 336 231 168 188 174 185 195 201 200 258 264 283 258 250 235 227 186 180 206 235 223 219 242 228 150 61 27 3 356 10 48